This is the latest recevied weather packets stored in our database for station/object K5EAA-13. If no packets are shown the sender has not sent any weather packets the latest 10 day(s).
| Time | Temp. | Humidity | Pressure | Rain* | Wind** | Luminosity | Snow |
|---|---|---|---|---|---|---|---|
| 1787841067 | 28.33° C | 69% | 1016 hPa | 0 mm | - | 311 W/m² | - |
| 1787840762 | 28.33° C | 71% | 1016 hPa | 0 mm | - | 299 W/m² | - |
| 1787840458 | 27.78° C | 71% | 1016 hPa | 0 mm | - | 287 W/m² | - |
| 1787840153 | 27.78° C | 72% | 1016.1 hPa | 0 mm | - | 276 W/m² | - |
| 1787839853 | 27.78° C | 72% | 1016 hPa | 0 mm | - | 264 W/m² | - |
| 1787839548 | 27.22° C | 75% | 1016 hPa | 0 mm | - | 251 W/m² | - |
| 1787839248 | 27.22° C | 74% | 1015.8 hPa | 0 mm | - | 237 W/m² | - |
| 1787838948 | 26.67° C | 74% | 1015.6 hPa | 0 mm | - | 221 W/m² | - |
| 1787838647 | 26.67° C | 74% | 1015.9 hPa | 0 mm | - | 206 W/m² | - |
| 1787838346 | 26.67° C | 74% | 1015.9 hPa | 0 mm | - | 190 W/m² | - |
| 1787838046 | 26.67° C | 74% | 1015.7 hPa | 0 mm | - | 177 W/m² | - |
| 1787837745 | 26.67° C | 75% | 1015.7 hPa | 0 mm | - | 167 W/m² | - |
| 1787837440 | 26.67° C | 75% | 1015.8 hPa | 0 mm | - | 152 W/m² | - |
| 1787837135 | 26.67° C | 75% | 1015.7 hPa | 0 mm | - | 143 W/m² | - |
| 1787836834 | 26.11° C | 76% | 1015.4 hPa | 0 mm | - | 125 W/m² | - |
| 1787836530 | 26.11° C | 76% | 1015.3 hPa | 0 mm | - | 114 W/m² | - |
| 1787836224 | 26.11° C | 76% | 1015.5 hPa | 0 mm | - | 100 W/m² | - |
| 1787835921 | 25.56° C | 78% | 1015.1 hPa | 0 mm | - | 90 W/m² | - |
| 1787835621 | 25.56° C | 78% | 1015.3 hPa | 0 mm | - | 80 W/m² | - |
| 1787835320 | 25.56° C | 78% | 1015.1 hPa | 0 mm | - | 70 W/m² | - |
| 1787835015 | 25.56° C | 78% | 1015.3 hPa | 0 mm | - | 61 W/m² | - |
| 1787834714 | 25.56° C | 78% | 1015.3 hPa | 0 mm | - | 52 W/m² | - |
| 1787834409 | 25.56° C | 79% | 1015.2 hPa | 0 mm | - | 45 W/m² | - |
| 1787834106 | 25° C | 80% | 1015.2 hPa | 0 mm | - | 38 W/m² | - |
| 1787833800 | 25° C | 81% | 1015 hPa | 0 mm | - | 32 W/m² | - |
* Rain latest hour (hover to see other rain measurements)
** Current wind speed in m/s (hover to see current wind gust speed)